Location: Helsinki
(60.1699°N, 24.9384°E)
Time: 23:45:46
(UTC+02:00)

A-11 Canister half - Pass Details

Date: 31 October 2020
Orbit: 1516 x 1684 km, 47.2° (Epoch: 26 November)

Event Time Altitude Azimuth Distance (km) Brightness Sun altitude
Rises 02:02:20 0° 277° (W) 4,888 - -39.2°
Reaches altitude 10° 02:06:28 10° 263° (W) 3,872 - -38.9°
Maximum altitude 02:13:10 21° 219° (SW) 3,022 - -38.3°
Drops below altitude 10° 02:19:45 10° 175° (S) 3,770 - -37.8°
Sets 02:23:43 0° 161° (SSE) 4,724 - -37.4°
